Regional Weather Roundup
Issued by NWS Charleston, WV

Home | Current Version | Previous Version | Text Only | Print | Product List | Glossary Off
Versions: 1 2 3 4 5 6 7 8 9 10 11 12 13 14 15 16 17 18 19 20 21 22 23 24 25 26 27 28 29 30 31 32 33 34 35 36 37 38 39 40 41 42 43 44 45 46 47 48 49 50

873
ASUS41 KRLX 310610
RWRRLX
West Virginia Regional Weather Roundup
National Weather Service Charleston WV
200 AM EDT WED AUG 31 2016

Note: "fair" indicates few or no clouds below 12,000 feet with no
significant weather and/or obstructions to visibility.

WVZ003-310700-
Northern Panhandle of West Virginia

CITY           SKY/WX    TMP DP  RH WIND       PRES   REMARKS
WHEELING       PTCLDY    67  56  67 CALM      30.06F
$$

WVZ009-310700-
Northwest West Virginia

CITY           SKY/WX    TMP DP  RH WIND       PRES   REMARKS
PARKERSBURG    CLOUDY    64  61  90 CALM      30.08S
$$

WVZ006-310700-
Western West Virginia

CITY           SKY/WX    TMP DP  RH WIND       PRES   REMARKS
HUNTINGTON     CLEAR     68  65  90 CALM      30.04F
$$

WVZ015-310700-
West Central West Virginia

CITY           SKY/WX    TMP DP  RH WIND       PRES   REMARKS
CHARLESTON     PTCLDY    65  63  93 CALM      30.05S
$$

WVZ022-031-310700-
North Central West Virginia

CITY           SKY/WX    TMP DP  RH WIND       PRES   REMARKS
CLARKSBURG     CLEAR     59  56  89 CALM      30.07F
MORGANTOWN     NOT AVBL
$$

WVZ025-035-042-045-310700-
Southern West Virginia

CITY           SKY/WX    TMP DP  RH WIND       PRES   REMARKS
BECKLEY        CLEAR     67  64  90 CALM      30.14S
LOGAN            N/A     70  70 100 CALM      30.08S
BLUEFIELD      CLEAR     70  63  78 CALM      30.16F
LEWISBURG      FOG       65  65 100 NE3       30.14S VSB 1/2
$$

WVZ047-310700-
Northern Mountains of West Virginia

CITY           SKY/WX    TMP DP  RH WIND       PRES   REMARKS
ELKINS         CLEAR     55  52  89 CALM      30.14F
$$

WVZ052-310700-
Eastern Panhandle of West Virginia

CITY           SKY/WX    TMP DP  RH WIND       PRES   REMARKS
MARTINSBURG    CLEAR     66  63  90 CALM      30.05F
PETERSBURG     CLEAR     66  62  87 CALM      30.07F
$$




USA.gov is the U.S. government's official web portal to all federal, state and local government web resources and services.